WB5CON Weather Reports


time (UTC)temp
C
wind
direction
speed
KPH
gust
KPH
rain 1hr
cm
rain 24hr
cm
rain mn
cm
humidity
%
barometer
mb
20260510214007 26 211 3.2 8.0 0.00 0.00 0.00 55 1015.5
20260510211007 27 163 1.6 8.0 0.00 0.00 0.00 52 1015.5
20260510203007 27 107 0.0 9.7 0.00 0.00 0.00 44 1015.8
20260510190007 28 264 4.8 9.7 0.00 0.00 0.00 38 1016.4
20260510183007 28 40 1.6 11.3 0.00 0.00 0.00 43 1016.5
20260510180007 27 261 3.2 4.8 0.00 0.00 0.00 46 1016.8
20260510175007 28 319 3.2 8.0 0.00 0.00 0.00 51 1017.0
20260510172007 27 0 1.6 4.8 0.00 0.00 0.00 48 1017.3
20260510171007 27 317 3.2 4.8 0.00 0.00 0.00 46 1017.4
20260510170007 26 132 1.6 11.3 0.00 0.00 0.00 56 1017.4
20260510165006 27 215 3.2 9.7 0.00 0.00 0.00 56 1017.4
20260510164007 26 245 3.2 9.7 0.00 0.00 0.00 62 1017.4
20260510162007 26 286 0.0 11.3 0.00 0.00 0.00 65 1017.6
20260510160007 25 275 3.2 8.0 0.00 0.00 0.00 74 1017.6
20260510154007 23 279 1.6 9.7 0.00 0.00 0.00 78 1017.3
20260510151007 22 249 1.6 4.8 0.00 0.00 0.00 83 1017.6
20260510142007 21 236 1.6 4.8 0.00 0.00 0.00 88 1017.3
20260510140007 20 246 0.0 4.8 0.00 0.00 0.00 88 1017.2
20260510135007 20 246 1.6 3.2 0.00 0.00 0.00 90 1017.1
20260510134007 20 244 3.2 3.2 0.00 0.00 0.00 92 1017.0
20260510133006 19 244 0.0 3.2 0.00 0.00 0.00 94 1017.2
20260510132007 18 244 0.0 1.6 0.00 0.00 0.00 95 1017.1
20260510130007 17 244 0.0 4.8 0.00 0.00 0.00 97 1017.0
20260510124007 17 227 1.6 4.8 0.00 0.00 0.00 97 1016.9
20260510123007 16 180 0.0 0.0 0.00 0.00 0.00 98 1016.9
20260510110007 14 163 0.0 0.0 0.00 0.00 0.00 97 1015.4
20260510105007 14 163 0.0 0.0 0.00 0.00 0.00 97 1015.3
20260510104007 14 163 0.0 0.0 0.00 0.00 0.00 97 1015.4
20260510100007 15 163 0.0 0.0 0.00 0.00 0.00 97 1014.9
20260510094007 15 163 0.0 0.0 0.00 0.00 0.00 97 1014.6
20260510091007 15 163 0.0 0.0 0.00 0.00 0.00 97 1014.5
20260510090007 15 163 0.0 0.0 0.00 0.00 0.00 97 1014.4
20260510084007 15 163 0.0 0.0 0.00 0.00 0.00 96 1014.5
20260510083007 16 163 0.0 0.0 0.00 0.00 0.00 97 1014.4
20260510081007 16 163 0.0 0.0 0.00 0.00 0.00 96 1014.4
20260510075006 16 163 0.0 0.0 0.00 0.00 0.00 96 1014.3
20260510074007 16 163 0.0 1.6 0.00 0.00 0.00 96 1014.3
20260510073007 16 163 0.0 0.0 0.00 0.00 0.00 96 1014.2
20260510070007 16 163 0.0 1.6 0.00 0.00 0.00 96 1013.9
20260510065007 16 163 0.0 0.0 0.00 0.00 0.00 96 1013.9
20260510061006 17 163 0.0 1.6 0.00 0.00 0.00 95 1014.1
20260510054007 17 163 0.0 1.6 0.00 0.00 0.00 94 1014.1
20260510051007 17 225 0.0 1.6 0.00 0.00 0.00 93 1014.1
20260510045007 18 146 0.0 3.2 0.00 0.00 0.00 92 1014.0
20260510044007 18 186 0.0 3.2 0.00 0.00 0.00 92 1013.9
20260510035007 18 146 1.6 1.6 0.00 0.00 0.00 91 1014.2
20260510030007 18 250 0.0 1.6 0.00 0.00 0.00 89 1014.0
20260510025007 18 250 0.0 1.6 0.00 0.00 0.00 87 1013.9
20260510021007 18 207 0.0 1.6 0.00 0.00 0.00 85 1013.2
20260510015007 19 207 0.0 0.0 0.00 0.00 0.00 82 1012.7
20260510010007 21 207 0.0 0.0 0.00 0.00 0.00 74 1011.8
20260510003007 23 207 0.0 0.0 0.00 0.00 0.00 69 1011.3
20260510002007 23 207 0.0 3.2 0.00 0.00 0.00 67 1011.3
20260509234007 25 355 1.6 4.8 0.00 0.00 0.00 47 1011.1
20260509233007 26 25 4.8 8.0 0.00 0.00 0.00 43 1011.2
20260509232007 26 323 3.2 8.0 0.00 0.00 0.00 42 1011.2
20260509223006 27 301 4.8 11.3 0.00 0.00 0.00 40 1010.8
20260509222007 27 278 3.2 12.9 0.00 0.00 0.00 42 1010.7
20260509220007 26 280 3.2 4.8 0.00 0.00 0.00 42 1010.8